640  
ASUS43 KFSD 181910  
RWRFSD  
 
WEATHER ROUNDUP FOR SE SOUTH DAKOTA/SW MINNESOTA/NW IOWA  
NATIONAL WEATHER SERVICE SIOUX FALLS SD  
100 PM CST SAT NOV 18 2017  
 
NOTE: "FAIR" INDICATES FEW OR NO CLOUDS BELOW 12,000 FEET WITH NO  
SIGNIFICANT WEATHER AND OR S TO VISIBILITY
.  
 
 
SDZ038>040-050-052>070-182000-  
SOUTHEAST SOUTH DAKOTA  
 
CITY SKY/WX TMP DP RH WIND PRES REMARKS
 
BROOKINGS SUNNY 31 18 58 NW22G29 29.99S WCI 18  
CHAMBERLAIN SUNNY 35 23 60 NW17G26 30.12F WCI 25  
HURON SUNNY 33 17 51 NW18G25 30.09F WCI 22  
MADISON FAIR 32 18 55 NW24G31 30.01S WCI 19  
MITCHELL SUNNY 35 17 47 NW23G29 30.10S WCI 23  
SIOUX FALLS MOSUNNY 37 22 54 NW25G32 30.00F  
WINNER FAIR 40 26 57 NW24G30 30.12F  
YANKTON MOSUNNY 37 25 61 NW25G31 30.05S  

 
 
MNZ071-072-080-081-089-090-097-098-182000-  
SOUTHWEST MINNESOTA  
 
CITY SKY/WX TMP DP RH WIND PRES REMARKS
 
FAIRMONT SUNNY 34 23 64 NW28G37 29.90R WCI 21  
JACKSON SUNNY 34 21 60 NW23G32 29.92R WCI 22  
LUVERNE SUNNY 36 21 55 N23G31 29.98R  
MARSHALL SUNNY 31 19 61 NW25G33 29.97F WCI 17  
MONTEVIDEO MOSUNNY 32 19 59 N17G31 29.99R WCI 21  
PIPESTONE MOSUNNY 32 19 59 NW22G31 29.96F WCI 19  
REDWOOD FALLS MOSUNNY 31 17 56 NW18G31 29.95R WCI 19  
WINDOM SUNNY 32 16 51 NW26G37 29.91S WCI 18  
WORTHINGTON SUNNY 35 20 54 NW28G37 29.94R WCI 22  

 
 
IAZ001>003-012>014-020>022-031-032-NEZ013-014-SDZ071-182000-  
NORTHWEST IOWA  
 
CITY SKY/WX TMP DP RH WIND PRES REMARKS
 
CHEROKEE MOSUNNY 41 28 61 NW21G29 29.96R  
DENISON SUNNY 43 30 61 N23G33 29.95R  
ESTHERVILLE SUNNY 35 24 64 N29G37 29.91R WCI 22  
LE MARS SUNNY 41 27 56 NW22G30 29.98R  
ORANGE CITY SUNNY 39 28 65 NW22G33 29.97R  
SHELDON MOSUNNY 39 25 56 NW29G37 29.94R  
SIOUX CITY SUNNY 40 28 62 NW28G40 29.99R  
SPENCER SUNNY 40 23 50 N23G33 29.93R  
STORM LAKE SUNNY 39 28 65 NW23G33 29.92R  

 
 
ABBREVIATIONS USED IN REMARKS  
TC - TEMPERATURE IN CELSIUS  
WCI - WIND CHILL INDEX  
HX - HEAT INDEX  
VSB - VISIBILITY  
 
 
 
CLICK HERE TO GO TO PREVIOUS BULLETINS.

The Nexlab SD Page
The Nexlab IA Page
The Nexlab MN Page
The Nexlab NE Page Main Text Page